THORAD DELTA 1 DEB, 42620

Orbit data source: Space-Track

THORAD DELTA 1 DEB, 42620 is space debris in SSO originally from a launch on Fri, 15 Nov 1974 UTC launched from the Air Force Western Test Range (AFWTR). Debris objects in space refer to the collection of defunct objects orbiting the Earth. Examples of debris include non-operational satellites, rocket bodies, and fragments generated from explosions, collisions, or faulty payload assembly.

Loading next visibility...
Identifier
42620, 1974-089GM
Orbit
SSO
Last TLE update
3 days ago
Origin
Manufacturer
Unknown
Mission
Spacecraft
Bus & Motor
Unknown
Mass
Unknown
Launch date (UTC)
1974-11-15 (51 years ago)
Launch vehicle
Unknown
Launch site
Air Force Western Test Range (AFWTR)
Object type
Payload
Rocket body
Debris
Shape & HBR
Unknown
Radar Cross Section
Small (<0.1 m²)

Expand to show TLE details & history

TLE from 3 days ago
0 THORAD DELTA 1 DEB
1 42620U 74089GM  25188.91547803  .00000026  00000-0  56194-3 0  9999
2 42620 101.0813 185.3044 0149409  67.5441 294.1363 12.23188815230001
Epoch: 2025-07-07T21:58Z
TLE epoch observation values (Epoch: 2025-07-07T21:58:17.301Z)
Latitude
-0.00003°
Longitude
-70.38565°
Altitude
1,534.117 km
Speed
7.12 km/s
True Right ascension
12h 21m 13s
True Declination
0° 00' 00"
Sunlit
Object was in daylight at epoch
Visualization orbit readout
Latitude
55.66111°
Longitude
129.2461°
Altitude
1,530.101 km
Speed
7.132 km/s
Apparent Right ascension
05h 47m 18s
Apparent Declination
25° 54' 40"
Sunlit
Object is in daylight
Visualization observer readout
Local Sidereal Time
21:21:37
Azimuth
46.88° ENE
Elevation
-7.422°
Doppler factor
1
Orbital elements
Apogee altitude
1,695.072 km
Perigee altitude
1,457.381 km
Semi-major axis
7,954.363 km
Eccentricity
0.01494
Inclination
101.0813°
RAAN
185.3044°
Arg. of periapsis
67.5441°
True anomaly
Unknown
Mean anomaly
294.1363°
Eccentric anomaly
Unknown
Mean motion
3.05939 °/min
Orbital period
117.67 mins
BSTAR
0.00056194
Loading maneuver chart data...
Loading SW <> Apogee altitude chart data...

THORAD DELTA 1 DEB Visibility forecast

Observer location: undefined°, undefined°

Span
Click to sort rows by Start time (UTC) header in descending order
Start Az.
Max El. time (UTC)
Max El. Az.
Max El.
End time (UTC)
End Az.
11 mins2025-07-11 11:02:58.994Z50.76° ENE2025-07-11 11:07:58.994Z89.777° E20.234°2025-07-11 11:13:58.994Z135.545° SSE
15 mins2025-07-11 12:57:58.994Z13.006° NNE2025-07-11 13:04:58.994Z259.921° W44.355°2025-07-11 13:12:58.994Z205.066° SW
9 mins2025-07-11 14:54:58.994Z339.997° N2025-07-11 14:58:58.994Z308.693° NW17.549°2025-07-11 15:03:58.994Z272.164° WNW
13 mins2025-07-11 22:17:58.994Z116.351° SE2025-07-11 22:23:58.994Z61.346° ENE29.79°2025-07-11 22:30:58.994Z0.384° NNE
14 mins2025-07-12 00:12:58.994Z187.886° SSW2025-07-12 00:18:58.994Z249.041° W38.307°2025-07-12 00:26:58.994Z333.071° NNW
|